When you browse on this site, cookies collect data to enhance your experience and personalize the content and advertising you see.
Visit our Privacy Policy to learn more. By continuing to use the site, you agree to this use of cookies and data.
  • în România
  • Lista ţărilor
  • Pe 7 zile
  • Temperatura apei
  • Hartă satelitară
  • Meteo pe hartă
  • Widget-uri
  • user-avatar
    Intrare

    Meteo pe oră la Chitré

    Astăzi, 20 Iulie, Sâmbătă

    Timp Temperatura Precipitaţii Vânt Presiune Umiditate
    00:00 +28°C° 0 mm 3 m/s 754 mmHg 89%
    01:00 +27°C° 0 mm 2 m/s 754 mmHg 91%
    02:00 +27°C° 0 mm 2 m/s 753 mmHg 91%
    03:00 +27°C° 0 mm 2 m/s 753 mmHg 91%
    04:00 +27°C° 0 mm 2 m/s 753 mmHg 92%
    05:00 +27°C° 0 mm 2 m/s 753 mmHg 91%
    06:00 +27°C° 0 mm 2 m/s 753 mmHg 90%
    07:00 +27°C° 0 mm 1 m/s 753 mmHg 90%
    08:00 +29°C° 0 mm 2 m/s 753 mmHg 84%
    09:00 +30°C° 0 mm 2 m/s 754 mmHg 79%
    10:00 +31°C° 0 mm 2 m/s 754 mmHg 74%
    11:00 +32°C° 0.5 mm 2 m/s 754 mmHg 72%
    12:00 +32°C° 0.5 mm 2 m/s 753 mmHg 69%
    13:00 +34°C° 0.5 mm 2 m/s 753 mmHg 67%
    14:00 +34°C° 0.6 mm 2 m/s 752 mmHg 68%
    15:00 +34°C° 0.6 mm 2 m/s 752 mmHg 69%
    16:00 +34°C° 0.6 mm 3 m/s 752 mmHg 69%
    17:00 +33°C° 0.3 mm 3 m/s 752 mmHg 74%
    18:00 +31°C° 0.3 mm 2 m/s 752 mmHg 78%
    19:00 +29°C° 0.3 mm 2 m/s 752 mmHg 83%
    20:00 +29°C° 0 mm 3 m/s 753 mmHg 84%
    21:00 +29°C° 0 mm 3 m/s 753 mmHg 86%
    22:00 +28°C° 0 mm 3 m/s 754 mmHg 88%
    23:00 +28°C° 0.1 mm 3 m/s 753 mmHg 89%

    Mâine, 21 Iulie, Duminică

    Timp Temperatura Precipitaţii Vânt Presiune Umiditate
    00:00 +28°C° 0.1 mm 2 m/s 753 mmHg 90%
    01:00 +28°C° 0.1 mm 2 m/s 753 mmHg 91%
    02:00 +27°C° 1.2 mm 2 m/s 753 mmHg 91%
    03:00 +27°C° 1.2 mm 2 m/s 753 mmHg 91%
    04:00 +27°C° 1.2 mm 2 m/s 752 mmHg 91%
    05:00 +27°C° 2.1 mm 2 m/s 753 mmHg 91%
    06:00 +27°C° 2.1 mm 2 m/s 753 mmHg 91%
    07:00 +27°C° 2.1 mm 2 m/s 753 mmHg 91%
    08:00 +28°C° 0.1 mm 1 m/s 754 mmHg 88%
    09:00 +29°C° 0.1 mm 1 m/s 754 mmHg 85%
    10:00 +29°C° 0.1 mm 1 m/s 754 mmHg 81%
    11:00 +30°C° 0.4 mm 1 m/s 754 mmHg 78%
    12:00 +31°C° 0.4 mm 1 m/s 754 mmHg 75%
    13:00 +32°C° 0.4 mm 1 m/s 753 mmHg 72%
    14:00 +32°C° 0.8 mm 1 m/s 753 mmHg 72%
    15:00 +32°C° 0.8 mm 1 m/s 752 mmHg 71%
    16:00 +32°C° 0.8 mm 1 m/s 752 mmHg 71%
    17:00 +31°C° 1.2 mm 1 m/s 752 mmHg 75%
    18:00 +30°C° 1.2 mm 2 m/s 753 mmHg 80%
    19:00 +29°C° 1.2 mm 2 m/s 753 mmHg 85%
    20:00 +28°C° 0.4 mm 2 m/s 753 mmHg 85%
    21:00 +28°C° 0.4 mm 2 m/s 754 mmHg 86%
    22:00 +28°C° 0.4 mm 2 m/s 754 mmHg 87%
    23:00 +27°C° 0 mm 2 m/s 754 mmHg 88%

    Poimâine, 22 Iulie, Luni

    Timp Temperatura Precipitaţii Vânt Presiune Umiditate
    00:00 +27°C° 0 mm 2 m/s 754 mmHg 89%
    01:00 +27°C° 0 mm 3 m/s 754 mmHg 90%
    02:00 +27°C° 0.8 mm 3 m/s 753 mmHg 91%
    03:00 +27°C° 0.8 mm 2 m/s 753 mmHg 91%
    04:00 +27°C° 0.8 mm 2 m/s 753 mmHg 92%
    05:00 +27°C° 1.2 mm 2 m/s 753 mmHg 92%
    06:00 +27°C° 1.2 mm 3 m/s 753 mmHg 91%
    07:00 +27°C° 1.2 mm 3 m/s 754 mmHg 91%
    08:00 +27°C° 2.5 mm 3 m/s 754 mmHg 89%
    09:00 +28°C° 2.5 mm 2 m/s 755 mmHg 88%
    10:00 +28°C° 2.5 mm 2 m/s 755 mmHg 86%
    11:00 +29°C° 1.1 mm 2 m/s 755 mmHg 84%
    12:00 +29°C° 1.1 mm 2 m/s 755 mmHg 82%
    13:00 +30°C° 1.1 mm 2 m/s 754 mmHg 79%
    14:00 +29°C° 1.8 mm 2 m/s 754 mmHg 81%
    15:00 +29°C° 1.8 mm 2 m/s 754 mmHg 82%
    16:00 +29°C° 1.8 mm 1 m/s 753 mmHg 84%
    17:00 +28°C° 1.4 mm 2 m/s 754 mmHg 85%
    18:00 +28°C° 1.4 mm 2 m/s 754 mmHg 87%
    19:00 +27°C° 1.4 mm 3 m/s 755 mmHg 89%
    20:00 +27°C° 0.8 mm 3 m/s 755 mmHg 91%
    21:00 +26°C° 0.8 mm 3 m/s 756 mmHg 92%
    22:00 +26°C° 0.8 mm 3 m/s 756 mmHg 93%
    23:00 +26°C° 0.1 mm 3 m/s 756 mmHg 93%

    23 Iulie, Marţi

    Timp Temperatura Precipitaţii Vânt Presiune Umiditate
    00:00 +26°C° 0.1 mm 3 m/s 756 mmHg 93%
    01:00 +26°C° 0.1 mm 3 m/s 755 mmHg 93%
    02:00 +26°C° 0 mm 3 m/s 755 mmHg 93%
    03:00 +26°C° 0 mm 2 m/s 754 mmHg 93%
    04:00 +26°C° 0 mm 2 m/s 754 mmHg 93%
    05:00 +26°C° 0 mm 2 m/s 754 mmHg 93%
    06:00 +26°C° 0 mm 2 m/s 755 mmHg 92%
    07:00 +26°C° 0 mm 1 m/s 755 mmHg 91%
    08:00 +27°C° 0.1 mm 1 m/s 755 mmHg 86%
    09:00 +28°C° 0.1 mm 2 m/s 756 mmHg 82%
    10:00 +30°C° 0.1 mm 2 m/s 756 mmHg 77%
    11:00 +30°C° 0.5 mm 1 m/s 756 mmHg 76%
    12:00 +30°C° 0.5 mm 1 m/s 755 mmHg 76%
    13:00 +30°C° 0.5 mm 1 m/s 755 mmHg 76%
    14:00 +29°C° 4.9 mm 2 m/s 755 mmHg 82%
    15:00 +28°C° 4.9 mm 3 m/s 754 mmHg 88%
    16:00 +26°C° 4.9 mm 4 m/s 754 mmHg 94%
    17:00 +26°C° 6.4 mm 3 m/s 754 mmHg 94%
    18:00 +26°C° 6.4 mm 2 m/s 755 mmHg 95%
    19:00 +26°C° 6.4 mm 1 m/s 755 mmHg 95%
    20:00 +26°C° 0.3 mm 2 m/s 756 mmHg 95%
    21:00 +26°C° 0.3 mm 3 m/s 756 mmHg 95%
    22:00 +26°C° 0.3 mm 3 m/s 757 mmHg 96%
    23:00 +26°C° 0 mm 3 m/s 756 mmHg 95%

    24 Iulie, Miercuri

    Timp Temperatura Precipitaţii Vânt Presiune Umiditate
    00:00 +26°C° 0 mm 3 m/s 756 mmHg 95%
    01:00 +26°C° 0 mm 3 m/s 755 mmHg 95%
    02:00 +25°C° 0 mm 2 m/s 755 mmHg 94%
    03:00 +25°C° 0 mm 2 m/s 755 mmHg 94%
    04:00 +25°C° 0 mm 1 m/s 754 mmHg 93%
    05:00 +26°C° 0 mm 1 m/s 754 mmHg 92%
    06:00 +26°C° 0 mm 1 m/s 755 mmHg 92%
    07:00 +26°C° 0 mm 1 m/s 755 mmHg 91%
    08:00 +27°C° 0 mm 1 m/s 755 mmHg 88%
    09:00 +28°C° 0 mm 1 m/s 756 mmHg 84%
    10:00 +29°C° 0 mm 2 m/s 756 mmHg 81%
    11:00 +29°C° 0.1 mm 2 m/s 755 mmHg 78%
    12:00 +30°C° 0.1 mm 1 m/s 755 mmHg 75%
    13:00 +31°C° 0.1 mm 1 m/s 754 mmHg 72%
    14:00 +31°C° 0.9 mm 1 m/s 754 mmHg 73%
    15:00 +31°C° 0.9 mm 2 m/s 753 mmHg 73%
    16:00 +31°C° 0.9 mm 2 m/s 753 mmHg 74%
    17:00 +30°C° 1.8 mm 2 m/s 753 mmHg 78%
    18:00 +28°C° 1.8 mm 2 m/s 754 mmHg 83%
    19:00 +27°C° 1.8 mm 1 m/s 754 mmHg 88%
    20:00 +27°C° 0.7 mm 2 m/s 754 mmHg 89%
    21:00 +27°C° 0.7 mm 2 m/s 755 mmHg 89%
    22:00 +27°C° 0.7 mm 2 m/s 755 mmHg 89%
    23:00 +27°C° 0.2 mm 2 m/s 755 mmHg 90%

    25 Iulie, Joi

    Timp Temperatura Precipitaţii Vânt Presiune Umiditate
    00:00 +26°C° 0.2 mm 3 m/s 754 mmHg 90%
    01:00 +26°C° 0.2 mm 3 m/s 754 mmHg 91%
    02:00 +26°C° 0.4 mm 3 m/s 754 mmHg 91%
    03:00 +26°C° 0.4 mm 3 m/s 754 mmHg 92%
    04:00 +26°C° 0.4 mm 3 m/s 753 mmHg 92%
    05:00 +26°C° 0 mm 3 m/s 754 mmHg 92%
    06:00 +26°C° 0 mm 2 m/s 754 mmHg 92%
    07:00 +26°C° 0 mm 2 m/s 754 mmHg 92%
    08:00 +27°C° 0.2 mm 2 m/s 754 mmHg 88%
    09:00 +28°C° 0.2 mm 2 m/s 755 mmHg 84%
    10:00 +29°C° 0.2 mm 2 m/s 755 mmHg 80%
    11:00 +30°C° 1 mm 2 m/s 755 mmHg 76%
    12:00 +31°C° 1 mm 2 m/s 754 mmHg 73%
    13:00 +32°C° 1 mm 1 m/s 754 mmHg 69%
    14:00 +31°C° 1.5 mm 2 m/s 753 mmHg 71%
    15:00 +31°C° 1.5 mm 2 m/s 753 mmHg 73%
    16:00 +31°C° 1.5 mm 3 m/s 753 mmHg 75%
    17:00 +29°C° 1.8 mm 3 m/s 753 mmHg 79%
    18:00 +28°C° 1.8 mm 2 m/s 754 mmHg 83%
    19:00 +27°C° 1.8 mm 2 m/s 754 mmHg 86%
    20:00 +27°C° 0.8 mm 2 m/s 755 mmHg 88%
    21:00 +27°C° 0.8 mm 2 m/s 755 mmHg 89%
    22:00 +26°C° 0.8 mm 1 m/s 756 mmHg 91%
    23:00 +26°C° 0.1 mm 2 m/s 755 mmHg 92%
    Arată mai mult